STARLINK-35990 (66792 NORAD) Tracking and Keplerian Element Data

This shows tracking and keplerian element data for the satellite.

Feedback or suggestion? Click here.




ElementValue
Catalog66792
NameSTARLINK-35990
Epoch Orbit416
Epoch Day354.25003472
Epoch Year2025
RAAN206.4724
Inclination42.9996
Eccentricity0.0001321
Argument of Perigee259.7954
Mean Anonmoly324.7287
Mean Motion15.63549782
Decay Rate-0.01996153
L11 66792U 25278B 25354.25003472 -.01996153 00000+0 -23805-1 0 9990
L22 66792 42.9996 206.4724 0001321 259.7954 324.7287 15.63549782 4168



Live tracking and technical data element details for STARLINK-35990 (NORAD 66792). STARLINK-35990 can be tracked NOW for your location showing map with azimuth and elevation plus other details from your city location.







IsCatalogInMostPopularTable: catalog: 66792, numindb: 18
Update: records affected: 1



GetName: 66792 STARLINK-35990

Hit Count: updated at: Sat, 11 Apr 2026 21:54:45 GMT